TimePDT,TemperatureF,Dew PointF,Humidity,Sea Level PressureIn,VisibilityMPH,Wind Direction,Wind SpeedMPH,Gust SpeedMPH,PrecipitationIn,Events,Conditions,WindDirDegrees,DateUTC
12:15 AM,35.6,12.2,38,30.30,10.0,NW,3.5,-,N/A,,Clear,310,2013-10-27 07:15:00
12:35 AM,30.2,10.4,44,30.29,10.0,NW,3.5,-,N/A,,Clear,320,2013-10-27 07:35:00
12:55 AM,32.0,12.2,44,30.29,10.0,Calm,Calm,-,N/A,,Clear,0,2013-10-27 07:55:00
1:15 AM,30.2,10.4,44,30.28,10.0,Calm,Calm,-,N/A,,Clear,0,2013-10-27 08:15:00
1:35 AM,28.4,10.4,47,30.28,10.0,Calm,Calm,-,N/A,,Clear,0,2013-10-27 08:35:00
1:55 AM,26.6,8.6,47,30.28,10.0,Calm,Calm,-,N/A,,Clear,0,2013-10-27 08:55:00
2:15 AM,28.4,10.4,47,30.27,10.0,WNW,3.5,-,N/A,,Clear,300,2013-10-27 09:15:00
2:35 AM,28.4,12.2,51,30.26,10.0,Calm,Calm,-,N/A,,Clear,0,2013-10-27 09:35:00
2:55 AM,26.6,10.4,51,30.25,10.0,NNW,4.6,-,N/A,,Clear,330,2013-10-27 09:55:00
3:15 AM,26.6,10.4,51,30.25,10.0,North,4.6,-,N/A,,Clear,350,2013-10-27 10:15:00
3:35 AM,26.6,12.2,55,30.24,10.0,North,3.5,-,N/A,,Clear,10,2013-10-27 10:35:00
3:55 AM,24.8,10.4,54,30.23,10.0,North,4.6,-,N/A,,Clear,10,2013-10-27 10:55:00
4:15 AM,26.6,12.2,55,30.23,10.0,Calm,Calm,-,N/A,,Clear,0,2013-10-27 11:15:00
4:35 AM,26.6,12.2,55,30.21,10.0,NNE,3.5,-,N/A,,Clear,30,2013-10-27 11:35:00
4:55 AM,26.6,12.2,55,30.21,10.0,Calm,Calm,-,N/A,,Clear,0,2013-10-27 11:55:00
5:15 AM,26.6,10.4,51,30.21,10.0,Calm,Calm,-,N/A,,Clear,0,2013-10-27 12:15:00
5:35 AM,24.8,10.4,54,30.21,10.0,North,3.5,-,N/A,,Clear,350,2013-10-27 12:35:00
5:55 AM,24.8,12.2,59,30.21,10.0,Calm,Calm,-,N/A,,Clear,0,2013-10-27 12:55:00
6:15 AM,23.0,10.4,59,30.20,10.0,North,3.5,-,N/A,,Clear,10,2013-10-27 13:15:00
6:35 AM,24.8,12.2,59,30.19,10.0,Calm,Calm,-,N/A,,Clear,0,2013-10-27 13:35:00
6:55 AM,23.0,10.4,59,30.19,10.0,NNW,4.6,-,N/A,,Clear,340,2013-10-27 13:55:00
7:15 AM,21.2,10.4,63,30.19,10.0,North,-9999.0,-,N/A,,Clear,0,2013-10-27 14:15:00
7:35 AM,24.8,12.2,59,30.18,10.0,NW,3.5,-,N/A,,Clear,320,2013-10-27 14:35:00
7:55 AM,24.8,12.2,59,30.17,10.0,Calm,Calm,-,N/A,,Clear,0,2013-10-27 14:55:00
8:15 AM,28.4,14.0,55,30.17,10.0,WSW,4.6,-,N/A,,Clear,240,2013-10-27 15:15:00
8:35 AM,33.8,14.0,44,30.17,10.0,Calm,Calm,-,N/A,,Clear,0,2013-10-27 15:35:00
8:55 AM,39.2,14.0,36,30.17,10.0,Calm,Calm,-,N/A,,Clear,0,2013-10-27 15:55:00
9:15 AM,42.8,14.0,31,30.16,10.0,Calm,Calm,-,N/A,,Clear,0,2013-10-27 16:15:00
9:35 AM,46.4,15.8,29,30.15,10.0,SSE,5.8,-,N/A,,Clear,150,2013-10-27 16:35:00
9:55 AM,46.4,17.6,32,30.13,10.0,ESE,4.6,-,N/A,,Clear,120,2013-10-27 16:55:00
10:15 AM,50.0,17.6,28,30.13,10.0,SSE,4.6,-,N/A,,Clear,160,2013-10-27 17:15:00
10:35 AM,51.8,17.6,26,30.11,10.0,SE,5.8,-,N/A,,Clear,140,2013-10-27 17:35:00
10:55 AM,57.2,15.8,20,30.10,10.0,SE,4.6,-,N/A,,Clear,130,2013-10-27 17:55:00
11:15 AM,59.0,15.8,19,30.08,10.0,East,9.2,-,N/A,,Clear,80,2013-10-27 18:15:00
11:35 AM,59.0,15.8,19,30.07,10.0,East,8.1,17.3,N/A,,Clear,100,2013-10-27 18:35:00
11:55 AM,59.0,14.0,17,30.06,5.0,SE,8.1,-,N/A,,Haze,140,2013-10-27 18:55:00
12:15 PM,60.8,12.2,15,30.03,10.0,SW,6.9,25.3,N/A,,Scattered Clouds,220,2013-10-27 19:15:00
12:35 PM,62.6,14.0,15,30.02,10.0,West,13.8,20.7,N/A,,Clear,280,2013-10-27 19:35:00
12:55 PM,60.8,15.8,17,30.00,10.0,West,12.7,29.9,N/A,,Clear,270,2013-10-27 19:55:00
1:15 PM,60.8,15.8,17,29.99,10.0,West,18.4,25.3,N/A,,Clear,260,2013-10-27 20:15:00
1:35 PM,60.8,17.6,19,29.97,10.0,West,16.1,32.2,N/A,,Clear,270,2013-10-27 20:35:00
1:55 PM,60.8,17.6,19,29.95,10.0,South,15.0,33.4,N/A,,Clear,190,2013-10-27 20:55:00
2:15 PM,60.8,15.8,17,29.93,10.0,SSW,19.6,32.2,N/A,,Clear,210,2013-10-27 21:15:00
2:35 PM,59.0,14.0,17,29.92,10.0,WSW,16.1,36.8,N/A,,Clear,240,2013-10-27 21:35:00
2:55 PM,59.0,15.8,19,29.91,10.0,SSW,5.8,33.4,N/A,,Clear,210,2013-10-27 21:55:00
3:15 PM,59.0,14.0,17,29.90,10.0,West,15.0,23.0,N/A,,Clear,270,2013-10-27 22:15:00
3:35 PM,59.0,15.8,19,29.88,10.0,West,12.7,33.4,N/A,,Clear,270,2013-10-27 22:35:00
3:55 PM,59.0,15.8,19,29.85,10.0,South,31.1,40.3,N/A,,Clear,190,2013-10-27 22:55:00
4:15 PM,57.2,15.8,20,29.84,10.0,SSW,31.1,47.2,N/A,,Clear,200,2013-10-27 23:15:00
4:35 PM,55.4,15.8,21,29.82,10.0,South,32.2,43.7,N/A,,Clear,190,2013-10-27 23:35:00
4:55 PM,53.6,17.6,24,29.81,10.0,SW,31.1,50.6,N/A,,Clear,230,2013-10-27 23:55:00
5:15 PM,51.8,15.8,24,29.78,10.0,South,34.5,55.2,N/A,,Clear,180,2013-10-28 00:15:00
5:35 PM,50.0,15.8,26,29.77,10.0,SSW,28.8,61.0,N/A,,Clear,210,2013-10-28 00:35:00
5:55 PM,50.0,15.8,26,29.76,10.0,SSW,21.9,59.8,N/A,,Clear,210,2013-10-28 00:55:00
6:15 PM,50.0,15.8,26,29.75,10.0,South,20.7,51.8,N/A,,Clear,190,2013-10-28 01:15:00
6:35 PM,50.0,15.8,26,29.74,10.0,SSW,29.9,46.0,N/A,,Clear,200,2013-10-28 01:35:00
6:55 PM,48.2,17.6,30,29.72,10.0,SSW,32.2,52.9,N/A,,Clear,200,2013-10-28 01:55:00
7:15 PM,48.2,17.6,30,29.72,10.0,South,29.9,55.2,N/A,,Clear,190,2013-10-28 02:15:00
7:35 PM,46.4,17.6,32,29.72,10.0,South,26.5,66.7,N/A,,Clear,190,2013-10-28 02:35:00
7:55 PM,46.4,17.6,32,29.69,10.0,South,33.4,51.8,N/A,,Scattered Clouds,180,2013-10-28 02:55:00
8:15 PM,46.4,15.8,29,29.67,10.0,South,32.2,54.1,N/A,,Scattered Clouds,190,2013-10-28 03:15:00
8:35 PM,46.4,15.8,29,29.63,10.0,South,29.9,48.3,N/A,,Clear,180,2013-10-28 03:35:00
8:55 PM,44.6,15.8,31,29.60,10.0,SSW,27.6,48.3,N/A,,Clear,210,2013-10-28 03:55:00
9:15 PM,44.6,14.0,29,29.58,10.0,SSW,47.2,62.1,N/A,,Clear,200,2013-10-28 04:15:00
9:35 PM,44.6,15.8,31,29.60,10.0,SW,34.5,59.8,N/A,,Clear,220,2013-10-28 04:35:00
9:55 PM,44.6,17.6,34,29.63,10.0,SSW,26.5,49.5,N/A,,Clear,200,2013-10-28 04:55:00
10:15 PM,44.6,17.6,34,29.62,10.0,WSW,5.8,35.7,N/A,,Scattered Clouds,240,2013-10-28 05:15:00
10:35 PM,44.6,21.2,39,29.61,10.0,West,5.8,24.2,N/A,,Overcast,270,2013-10-28 05:35:00
10:55 PM,44.6,23.0,43,29.61,10.0,SW,13.8,26.5,N/A,,Overcast,230,2013-10-28 05:55:00
11:15 PM,44.6,23.0,43,29.59,10.0,WSW,21.9,47.2,N/A,,Overcast,240,2013-10-28 06:15:00
11:35 PM,44.6,23.0,43,29.59,10.0,WNW,9.2,21.9,N/A,,Overcast,290,2013-10-28 06:35:00
11:55 PM,44.6,21.2,39,29.56,10.0,SW,29.9,46.0,N/A,,Overcast,230,2013-10-28 06:55:00